Powrót do katalogu

STARLINK-34418

AktywnyŁącznośćVLEO
NORAD 64461·PAYLOAD·🇺🇸 United States

Wystrzelony Jun 18, 2025 z Cape Canaveral Space Force Station

Loading…

Następne Przeloty (najbliższe 24 godziny)

TLE

ŚwieżeSource: CelesTrak SupGP

Epoka: Sep 14, 2026, 21:16 UTC

1 64461C 25130Z   26257.88659722  .00030947  00000+0  91499-3 0  2575
2 64461  53.1567 287.6857 0001135  92.0153  95.1962 15.34353400    14

Śledź STARLINK-34418 w czasie rzeczywistym z AllMySat

Download on the App Store